Location: ShareBrained
(45.5589°N, 122.6491°W)
Time: 01:03:39
(UTC-08:00)

NOAA 19 - Pass Details

Date: 23 September 2023
Orbit: 839 x 860 km, 99.1° (Epoch: 08 December)

Event Time Altitude Azimuth Distance (km) Brightness Sun altitude
Exits shadow 20:01:50 13° 105° (ESE) 2,233 6.7 -10.5°
Maximum altitude 20:05:16 24° 60° (ENE) 1,707 6.4 -11.1°
Drops below altitude 10° 20:09:32 10° 9° (N) 2,491 7.7 -11.8°
Sets 20:12:20 0° 356° (N) 3,435 8.6 -12.3°
